TimeEST,TemperatureF,Dew PointF,Humidity,Sea Level PressureIn,VisibilityMPH,Wind Direction,Wind SpeedMPH,Gust SpeedMPH,PrecipitationIn,Events,Conditions,WindDirDegrees,DateUTC
12:15 AM,45.3,38.7,78,29.94,10.0,Calm,Calm,-,N/A,,Clear,0,2013-02-25 05:15:00
12:35 AM,50.4,34.3,54,29.94,10.0,Calm,Calm,-,N/A,,Clear,0,2013-02-25 05:35:00
12:55 AM,50.4,33.4,52,29.92,10.0,Calm,Calm,-,N/A,,Clear,0,2013-02-25 05:55:00
1:15 AM,50.5,32.4,50,29.91,10.0,Calm,Calm,-,N/A,,Clear,0,2013-02-25 06:15:00
1:35 AM,47.8,34.9,61,29.95,10.0,Calm,Calm,-,N/A,,Clear,0,2013-02-25 06:35:00
1:55 AM,48.7,33.6,56,29.95,10.0,Calm,Calm,-,N/A,,Clear,0,2013-02-25 06:55:00
2:15 AM,48.9,33.1,54,29.93,10.0,Calm,Calm,-,N/A,,Clear,0,2013-02-25 07:15:00
2:35 AM,49.3,32.5,53,29.92,10.0,Calm,Calm,-,N/A,,Clear,0,2013-02-25 07:35:00
2:55 AM,48.2,35.1,60,29.92,10.0,Calm,Calm,-,N/A,,Scattered Clouds,0,2013-02-25 07:55:00
3:15 AM,48.4,36.3,63,29.92,10.0,Calm,Calm,-,N/A,,Mostly Cloudy,0,2013-02-25 08:15:00
3:35 AM,48.2,36.0,63,29.92,10.0,Calm,Calm,-,N/A,,Overcast,0,2013-02-25 08:35:00
3:55 AM,48.6,33.6,56,29.91,10.0,Calm,Calm,-,N/A,,Overcast,0,2013-02-25 08:55:00
4:15 AM,48.4,33.6,57,29.90,10.0,Calm,Calm,-,N/A,,Mostly Cloudy,0,2013-02-25 09:15:00
4:35 AM,48.4,33.4,56,29.89,10.0,Calm,Calm,-,N/A,,Mostly Cloudy,0,2013-02-25 09:35:00
4:55 AM,48.9,33.8,56,29.90,10.0,Calm,Calm,-,N/A,,Overcast,0,2013-02-25 09:55:00
5:15 AM,50.0,33.4,53,29.89,10.0,Calm,Calm,-,N/A,,Overcast,0,2013-02-25 10:15:00
5:35 AM,50.4,33.4,52,29.88,10.0,Calm,Calm,-,N/A,,Overcast,0,2013-02-25 10:35:00
5:55 AM,51.3,32.2,48,29.90,10.0,Calm,Calm,-,N/A,,Overcast,0,2013-02-25 10:55:00
6:15 AM,51.4,32.2,48,29.91,10.0,ENE,3.5,-,N/A,,Overcast,70,2013-02-25 11:15:00
6:35 AM,51.3,32.2,48,29.92,10.0,Calm,Calm,-,N/A,,Overcast,0,2013-02-25 11:35:00
6:55 AM,51.3,32.2,48,29.91,10.0,East,3.5,-,N/A,,Overcast,90,2013-02-25 11:55:00
7:15 AM,51.8,31.8,47,29.92,10.0,ENE,3.5,-,N/A,,Overcast,70,2013-02-25 12:15:00
7:35 AM,51.3,32.4,48,29.94,10.0,East,3.5,-,N/A,,Light Drizzle,100,2013-02-25 12:35:00
7:55 AM,51.3,32.7,49,29.95,10.0,Calm,Calm,-,N/A,Rain,Light Rain,0,2013-02-25 12:55:00
8:15 AM,50.7,35.4,56,29.96,10.0,Calm,Calm,-,N/A,Rain,Light Rain,0,2013-02-25 13:15:00
8:35 AM,48.2,39.2,71,29.96,10.0,NE,3.5,-,N/A,Rain,Light Rain,40,2013-02-25 13:35:00
8:55 AM,47.5,40.1,76,29.98,10.0,Calm,Calm,-,N/A,Rain,Rain,0,2013-02-25 13:55:00
9:15 AM,46.8,41.7,83,29.98,10.0,Calm,Calm,-,N/A,Rain,Light Rain,0,2013-02-25 14:15:00
9:35 AM,46.6,41.7,83,29.98,10.0,ENE,3.5,-,N/A,,Drizzle,70,2013-02-25 14:35:00
9:55 AM,46.4,42.1,85,29.99,10.0,East,3.5,-,N/A,Rain,Light Rain,80,2013-02-25 14:55:00
10:15 AM,46.4,42.6,87,29.99,10.0,ESE,4.6,-,N/A,Rain,Light Rain,110,2013-02-25 15:15:00
10:35 AM,45.9,43.0,90,29.99,10.0,ESE,3.5,-,N/A,Rain,Light Rain,110,2013-02-25 15:35:00
10:55 AM,45.7,43.3,92,29.97,10.0,East,5.8,-,N/A,Rain,Light Rain,90,2013-02-25 15:55:00
11:15 AM,45.9,44.1,93,29.90,7.0,ESE,15.0,20.7,N/A,Rain,Light Rain,120,2013-02-25 16:15:00
11:35 AM,46.6,45.0,94,29.81,5.0,ESE,16.1,31.1,N/A,Rain,Light Rain,120,2013-02-25 16:35:00
11:55 AM,48.6,46.4,92,29.88,10.0,ENE,8.1,18.4,N/A,,Overcast,70,2013-02-25 16:55:00
12:15 PM,49.5,47.3,92,29.92,10.0,ENE,5.8,-,N/A,,Overcast,60,2013-02-25 17:15:00
12:35 PM,50.0,47.8,92,29.91,10.0,East,5.8,-,N/A,,Overcast,80,2013-02-25 17:35:00
12:55 PM,49.5,47.7,94,29.91,10.0,ENE,6.9,-,N/A,,Overcast,70,2013-02-25 17:55:00
1:15 PM,49.5,47.5,93,29.89,10.0,ENE,4.6,-,N/A,,Overcast,70,2013-02-25 18:15:00
1:35 PM,49.6,47.5,92,29.88,10.0,East,8.1,-,N/A,,Overcast,90,2013-02-25 18:35:00
1:55 PM,50.0,47.7,92,29.87,10.0,East,6.9,-,N/A,,Overcast,80,2013-02-25 18:55:00
2:15 PM,50.0,47.5,91,29.86,10.0,ENE,8.1,-,N/A,,Overcast,70,2013-02-25 19:15:00
2:35 PM,50.0,47.3,90,29.87,10.0,East,6.9,-,N/A,,Overcast,80,2013-02-25 19:35:00
2:55 PM,49.5,46.4,89,29.87,10.0,East,9.2,-,N/A,,Overcast,80,2013-02-25 19:55:00
3:15 PM,49.5,45.7,87,29.87,10.0,East,8.1,-,N/A,,Overcast,100,2013-02-25 20:15:00
3:35 PM,49.5,45.7,87,29.86,10.0,East,11.5,16.1,N/A,,Overcast,100,2013-02-25 20:35:00
3:55 PM,49.5,45.5,86,29.86,10.0,East,10.4,-,N/A,,Overcast,90,2013-02-25 20:55:00
4:15 PM,49.6,45.5,86,29.86,10.0,East,9.2,-,N/A,,Overcast,90,2013-02-25 21:15:00
4:35 PM,50.0,45.0,83,29.86,10.0,East,8.1,-,N/A,,Overcast,100,2013-02-25 21:35:00
4:55 PM,50.0,44.1,80,29.85,10.0,East,8.1,-,N/A,,Overcast,100,2013-02-25 21:55:00
5:15 PM,49.5,43.7,81,29.85,10.0,ESE,9.2,17.3,N/A,,Overcast,110,2013-02-25 22:15:00
5:35 PM,49.1,43.7,82,29.84,10.0,East,9.2,-,N/A,,Overcast,100,2013-02-25 22:35:00
5:55 PM,48.7,43.2,81,29.84,10.0,ESE,5.8,17.3,N/A,,Overcast,110,2013-02-25 22:55:00
6:15 PM,48.6,43.3,82,29.84,10.0,East,11.5,18.4,N/A,,Overcast,90,2013-02-25 23:15:00
6:35 PM,48.2,43.3,83,29.83,10.0,East,8.1,16.1,N/A,,Overcast,100,2013-02-25 23:35:00
6:55 PM,47.8,43.7,86,29.83,10.0,East,9.2,19.6,N/A,,Overcast,100,2013-02-25 23:55:00
7:15 PM,47.7,43.9,87,29.84,10.0,East,8.1,-,N/A,,Overcast,90,2013-02-26 00:15:00
7:35 PM,47.5,43.9,87,29.85,10.0,East,6.9,-,N/A,,Overcast,90,2013-02-26 00:35:00
7:55 PM,47.1,44.1,89,29.85,7.0,East,8.1,-,N/A,,Overcast,90,2013-02-26 00:55:00
8:15 PM,46.4,44.1,92,29.83,7.0,ESE,8.1,-,N/A,,Overcast,110,2013-02-26 01:15:00
8:35 PM,46.0,44.2,93,29.81,5.0,East,8.1,-,N/A,,Overcast,100,2013-02-26 01:35:00
8:55 PM,46.0,44.1,93,29.80,7.0,East,11.5,19.6,N/A,,Overcast,90,2013-02-26 01:55:00
9:15 PM,45.7,43.9,93,29.80,7.0,East,9.2,17.3,N/A,,Overcast,100,2013-02-26 02:15:00
9:35 PM,45.5,43.7,93,29.81,7.0,ESE,12.7,18.4,N/A,,Overcast,110,2013-02-26 02:35:00
9:55 PM,45.5,43.9,94,29.80,5.0,East,9.2,-,N/A,,Overcast,100,2013-02-26 02:55:00
10:15 PM,45.1,43.9,95,29.80,4.0,East,10.4,18.4,N/A,,Light Drizzle,90,2013-02-26 03:15:00
10:35 PM,45.0,44.1,97,29.79,5.0,East,9.2,-,N/A,Rain,Rain,100,2013-02-26 03:35:00
10:55 PM,45.0,44.1,97,29.80,7.0,ESE,8.1,-,N/A,Rain,Light Rain,110,2013-02-26 03:55:00
11:15 PM,45.1,44.1,96,29.81,7.0,East,6.9,-,N/A,Rain,Rain,100,2013-02-26 04:15:00
11:35 PM,45.1,44.1,96,29.80,7.0,East,6.9,-,N/A,Rain,Rain,90,2013-02-26 04:35:00
11:55 PM,45.1,43.9,95,29.80,5.0,East,8.1,-,N/A,Rain,Rain,100,2013-02-26 04:55:00